EW2875 Weather Reports


time (UTC)temp
F
wind
direction
speed
knots
gust
knots
rain 1hr
in
rain 24hr
in
rain mn
in
humidity
%
barometer
mb
20260508183003 50 308 10.4 13.9 0.00 0.00 0.00 70 1016.9
20260508181503 51 308 11.3 15.6 0.00 0.00 0.00 68 1016.6
20260508180003 52 310 9.6 16.5 0.00 0.00 0.00 68 1016.5
20260508174503 51 314 8.7 13.9 0.00 0.00 0.00 71 1016.4
20260508173003 51 312 10.4 15.6 0.00 0.00 0.00 70 1016.3
20260508171503 51 323 7.8 13.9 0.00 0.00 0.00 71 1016.0
20260508170004 51 311 10.4 16.5 0.00 0.00 0.00 70 1015.8
20260508164503 51 308 10.4 18.2 0.00 0.00 0.00 72 1015.5
20260508163003 51 313 11.3 16.5 0.00 0.00 0.00 71 1015.2
20260508161504 51 315 13.0 18.2 0.00 0.00 0.00 73 1015.2
20260508160003 52 314 13.0 20.9 0.00 0.00 0.00 73 1015.1
20260508154503 52 312 12.2 20.0 0.00 0.00 0.00 73 1015.0
20260508153003 53 313 12.2 18.2 0.00 0.00 0.00 70 1014.9
20260508151503 53 309 12.2 20.0 0.00 0.00 0.00 71 1014.7
20260508150004 54 315 12.2 19.1 0.00 0.00 0.00 68 1014.5
20260508144524 55 304 12.2 19.1 0.00 0.00 0.00 65 1014.3
20260508143003 55 301 11.3 18.2 0.00 0.00 0.00 67 1014.1
20260508141503 55 306 13.0 20.9 0.00 0.00 0.00 66 1013.9
20260508140003 55 310 7.0 11.3 0.00 0.00 0.00 67 1013.7
20260508134503 55 302 8.7 16.5 0.00 0.00 0.00 67 1013.6
20260508133003 55 293 11.3 15.6 0.00 0.00 0.00 65 1013.5
20260508131503 56 275 5.2 12.2 0.00 0.00 0.00 62 1013.3
20260508130004 56 276 4.3 13.0 0.00 0.00 0.00 64 1013.2
20260508124503 56 259 6.1 13.0 0.00 0.00 0.00 62 1013.1
20260508123003 56 237 7.0 13.0 0.00 0.00 0.00 65 1013.0
20260508121503 55 236 12.2 20.0 0.00 0.00 0.00 64 1013.0
20260508120003 56 235 9.6 19.1 0.00 0.00 0.00 66 1012.9
20260508114503 56 223 9.6 21.7 0.00 0.00 0.00 66 1012.6
20260508113004 55 230 12.2 20.9 0.00 0.00 0.00 65 1012.5
20260508111503 56 235 13.0 20.9 0.00 0.00 0.00 66 1012.3
20260508110003 54 236 12.2 21.7 0.00 0.00 0.00 68 1012.3
20260508104503 54 234 9.6 15.6 0.00 0.00 0.00 71 1012.3
20260508103003 53 244 12.2 21.7 0.00 0.00 0.00 70 1012.1
20260508101503 53 246 13.0 19.1 0.00 0.00 0.00 69 1012.0
20260508100003 53 237 11.3 20.0 0.00 0.00 0.00 69 1012.0
20260508094524 52 230 12.2 19.1 0.00 0.00 0.00 70 1011.7
20260508093003 52 227 10.4 19.1 0.00 0.00 0.00 71 1011.6
20260508091524 52 219 10.4 18.2 0.00 0.00 0.00 69 1011.6
20260508090024 51 219 8.7 15.6 0.00 0.00 0.00 73 1011.4
20260508084503 51 219 7.0 13.9 0.00 0.00 0.00 73 1011.4
20260508083003 50 219 8.7 16.5 0.00 0.00 0.00 73 1011.3
20260508081524 50 217 5.2 11.3 0.00 0.00 0.00 73 1011.2
20260508080024 50 219 5.2 12.2 0.00 0.00 0.00 75 1011.1
20260508074524 49 205 4.3 13.9 0.00 0.00 0.00 78 1010.9
20260508073003 49 206 6.1 12.2 0.00 0.00 0.00 77 1010.6
20260508071524 48 225 3.5 9.6 0.00 0.00 0.00 79 1010.4
20260508070003 48 218 6.1 13.9 0.00 0.00 0.00 80 1010.1
20260508064503 48 218 6.1 11.3 0.00 0.00 0.00 81 1009.9
20260508063003 48 218 5.2 10.4 0.00 0.00 0.00 82 1009.9
20260508061503 48 209 2.6 7.0 0.00 0.00 0.00 84 1009.8
20260508060024 47 210 4.3 7.8 0.00 0.00 0.00 85 1009.6
20260508054503 47 217 4.3 7.8 0.00 0.00 0.00 86 1009.4
20260508053003 47 220 4.3 7.8 0.00 0.00 0.00 87 1009.2
20260508051503 47 208 5.2 10.4 0.00 0.00 0.00 87 1009.1
20260508050003 47 194 6.1 9.6 0.00 0.00 0.00 87 1009.0
20260508044503 47 189 7.0 9.6 0.00 0.00 0.00 87 1008.9
20260508043003 46 187 5.2 9.6 0.00 0.00 0.00 87 1008.8
20260508041524 46 183 6.1 8.7 0.00 0.00 0.00 86 1008.8
20260508040003 47 183 7.8 10.4 0.00 0.00 0.00 85 1008.6
20260508034503 47 187 7.0 10.4 0.00 0.00 0.00 85 1008.6
20260508033003 47 175 9.6 12.2 0.00 0.00 0.00 85 1008.4
20260508031503 47 175 10.4 13.0 0.00 0.00 0.00 84 1008.4
20260508030003 48 179 10.4 15.6 0.00 0.00 0.00 84 1008.4
20260508024524 48 181 7.8 13.0 0.00 0.00 0.00 83 1008.5
20260508023024 48 184 9.6 12.2 0.00 0.00 0.00 82 1008.4
20260508021503 48 179 7.8 15.6 0.00 0.00 0.00 83 1008.5
20260508020005 47 168 8.7 13.0 0.00 0.00 0.00 84 1008.3
20260508014505 47 165 10.4 13.9 0.00 0.00 0.00 84 1008.2
20260508013005 48 174 13.0 15.6 0.00 0.00 0.00 83 1008.2
20260508011505 48 182 15.6 20.9 0.00 0.00 0.00 83 1008.1
20260508010005 46 177 11.3 17.4 0.00 0.00 0.00 85 1008.2
20260508004505 46 180 11.3 16.5 0.00 0.00 0.00 84 1008.3
20260508003005 47 187 13.9 20.0 0.00 0.00 0.00 83 1008.1
20260508001505 46 186 13.9 20.9 0.00 0.00 0.00 83 1008.0
20260508000005 46 184 13.9 18.2 0.00 0.00 0.00 82 1008.0
20260507234505 47 184 13.9 21.7 0.00 0.00 0.00 82 1008.1
20260507233005 47 182 13.0 18.2 0.00 0.00 0.00 82 1008.1
20260507231504 47 184 13.9 19.1 0.00 0.00 0.00 82 1008.4
20260507230005 46 179 12.2 17.4 0.00 0.00 0.00 85 1008.4
20260507224505 46 181 13.0 17.4 0.00 0.00 0.00 86 1008.3
20260507223005 47 183 11.3 16.5 0.00 0.00 0.00 85 1008.3
20260507221504 48 184 13.0 19.1 0.00 0.00 0.00 86 1008.3
20260507220004 47 183 14.8 19.1 0.00 0.00 0.00 86 1008.2
20260507214505 47 181 15.6 20.9 0.00 0.00 0.00 86 1008.2
20260507213005 47 182 14.8 20.0 0.00 0.00 0.00 86 1008.3
20260507211505 47 181 15.6 21.7 0.00 0.00 0.00 86 1008.5
20260507210005 47 176 16.5 20.0 0.00 0.00 0.00 86 1008.5
20260507204505 48 175 15.6 20.0 0.00 0.00 0.00 85 1008.3
20260507203005 48 174 15.6 20.9 0.00 0.00 0.00 85 1008.3
20260507201504 47 174 13.0 17.4 0.00 0.00 0.00 86 1008.3
20260507200026 48 172 13.9 18.2 0.00 0.00 0.00 85 1008.2
20260507194525 48 166 13.9 18.2 0.00 0.00 0.00 86 1008.1
20260507193004 49 164 12.2 16.5 0.00 0.00 0.00 85 1008.0
20260507191505 49 170 12.2 16.5 0.00 0.00 0.00 85 1008.0
20260507190005 50 170 14.8 20.9 0.00 0.00 0.00 84 1008.2
20260507184525 50 172 14.8 20.0 0.00 0.00 0.00 82 1008.0